DECAYED

FREGAT DEB, 45614 (Decayed)

Orbit data source: Space-Track

FREGAT DEB, 45614 was space debris in LEO originally from a launch on Mon, 18 Jul 2011 UTC launched from the Tyuratam Missile And Space Complex (TTMTR). Debris objects in space refer to the collection of defunct objects orbiting the Earth. Examples of debris include non-operational satellites, rocket bodies, and fragments generated from explosions, collisions, or faulty payload assembly.

Not visible in the next 10 days
Identifier
45614, 2011-037H
Orbit
Decayed
Country
Flag of CISCIS
Related business
Manufacturer
Lavochkin
Mission
Decayed spacecraft
Bus & Motor
Unknown
Mass
Unknown
Launch date (UTC)
2011-07-18 (14 years ago)
Launch vehicle
Unknown
Launch site
Tyuratam Missile And Space Complex (TTMTR)
Object type
Payload
Rocket body
Debris
Shape & HBR
Unknown shape, 0.6 m
Radar Cross Section
Medium (>0.1 m² and <1 m²)

Expand to show TLE details & history
Last TLE update: 4 months ago

TLE from 4 months ago
0 FREGAT DEB
1 45614U 11037H   25217.17296151  .11752596  00000-0  13115+0 0  9997
2 45614  51.1620 220.1425 0035013 338.9930  20.9614 15.56278068232085
Epoch: 2025-08-05T04:09Z
TLE epoch observation values (Epoch: 2025-08-05T04:09:03.874Z)
Latitude
-0.00008°
Longitude
-156.09359°
Altitude
376.986 km
Speed
7.697 km/s
True Right ascension
14h 40m 34s
True Declination
0° 00' 00"
Sunlit
Object was in daylight at epoch
Visualization orbit readout
Latitude
Unknown
Longitude
Unknown
Altitude
Unknown
Speed
Unknown
Apparent Right ascension
Unknown
Apparent Declination
Unknown
Sunlit
N/A
Visualization observer readout
Local Sidereal Time
08:50:54
Azimuth
Unknown
Elevation
Unknown
Doppler factor
Unknown
Orbital elements
Apogee altitude
422.757 km
Perigee altitude
375.3 km
Semi-major axis
6,777.166 km
Eccentricity
0.0035
Inclination
51.162°
RAAN
220.1425°
Arg. of periapsis
338.993°
True anomaly
21.10552°
Mean anomaly
20.9614°
Eccentric anomaly
21.0334°
Mean motion
3.89019 °/min
Orbital period
92.54 mins
BSTAR
0.13115
Loading maneuver chart data...
Computing Atmospheric mass density...
Loading historical data...
Loading historical data...
Loading historical data...
Loading historical data...
Loading historical data...
Loading historical data...
Loading historical data...

Documentation

Showing up to 5 results
|